Location: Archemont
(49.1579°N, 1.7598°E)
Time: 14:41:11
(UTC+00:00)

Transit 2A - Pass Details

Date: 19 April 2024
Orbit: 594 x 958 km, 66.7° (Epoch: 27 May)

Event Time Altitude Azimuth Distance (km) Brightness Sun altitude
Rises 10:35:57 0° 306° (NW) 3,015 8.7 49.1°
Reaches altitude 10° 10:40:26 10° 346° (NNW) 2,200 8.1 49.5°
Maximum altitude 10:41:30 11° 358° (N) 2,184 8.1 49.5°
Drops below altitude 10° 10:42:36 10° 11° (N) 2,251 8.2 49.6°
Sets 10:47:28 0° 49° (NE) 3,297 9.2 50.0°
